{"data":{"norad_id":65456,"epoch":"2026-09-20T13:11:32.726112Z","epoch_age_seconds":110603,"freshness":"FRESH","line1":"1 65456U 25194Y   26263.54968433  .00011550  00000+0  35949-3 0  9992","line2":"2 65456  97.2853 113.1723 0001610  84.6437 275.4990 15.33447502 59071","mean_motion":15.33447502,"eccentricity":0.000161,"inclination_deg":97.2853,"raan_deg":113.1723,"arg_perigee_deg":84.6437,"mean_anomaly_deg":275.499,"bstar":0.00035949,"rev_number":5907,"period_min":93.906051437814,"perigee_km":464.43389898698,"apogee_km":466.63756160614,"semimajor_km":6843.6727302966,"source":"CELESTRAK","updated_at":"2026-09-21T09:00:35.613127Z"}}